TimeEST,TemperatureF,Dew PointF,Humidity,Sea Level PressureIn,VisibilityMPH,Wind Direction,Wind SpeedMPH,Gust SpeedMPH,PrecipitationIn,Events,Conditions,WindDirDegrees,DateUTC
12:53 AM,64.9,62.1,90,30.10,9.0,North,-9999.0,-,N/A,,Overcast,0,2012-11-16 05:53:00
1:53 AM,66.0,61.0,84,30.10,10.0,NNE,5.8,-,N/A,,Overcast,30,2012-11-16 06:53:00
2:06 AM,66.2,60.8,83,30.10,10.0,NNE,8.1,-,N/A,,Overcast,30,2012-11-16 07:06:00
2:53 AM,64.9,60.1,84,30.10,10.0,NNE,6.9,-,N/A,,Overcast,20,2012-11-16 07:53:00
3:53 AM,64.0,60.1,87,30.10,10.0,North,6.9,-,N/A,,Overcast,10,2012-11-16 08:53:00
4:53 AM,64.0,57.9,80,30.10,10.0,North,5.8,-,N/A,,Overcast,10,2012-11-16 09:53:00
5:53 AM,63.0,57.9,84,30.10,10.0,NNE,5.8,-,N/A,,Overcast,20,2012-11-16 10:53:00
6:25 AM,62.6,57.2,82,30.11,10.0,North,8.1,-,N/A,,Overcast,10,2012-11-16 11:25:00
6:53 AM,62.1,57.9,86,30.10,10.0,NNE,8.1,-,N/A,,Overcast,30,2012-11-16 11:53:00
7:53 AM,62.1,57.9,86,30.13,6.0,North,8.1,-,N/A,,Overcast,10,2012-11-16 12:53:00
8:53 AM,62.1,57.9,86,30.14,8.0,NNE,8.1,-,N/A,,Overcast,30,2012-11-16 13:53:00
9:53 AM,63.0,59.0,87,30.14,10.0,ENE,11.5,-,N/A,,Overcast,60,2012-11-16 14:53:00
10:53 AM,66.0,60.1,81,30.13,10.0,NE,11.5,-,N/A,,Overcast,50,2012-11-16 15:53:00
11:08 AM,66.2,60.8,83,30.13,10.0,ENE,8.1,-,N/A,,Overcast,70,2012-11-16 16:08:00
11:53 AM,70.0,60.1,71,30.12,10.0,East,8.1,-,N/A,,Overcast,80,2012-11-16 16:53:00
12:53 PM,70.0,60.1,71,30.10,10.0,NNW,6.9,-,N/A,,Overcast,340,2012-11-16 17:53:00
1:53 PM,70.0,60.1,71,30.07,10.0,North,9.2,-,N/A,,Mostly Cloudy,350,2012-11-16 18:53:00
2:35 PM,69.8,59.0,68,30.07,10.0,NNE,10.4,-,N/A,,Scattered Clouds,20,2012-11-16 19:35:00
2:53 PM,68.0,59.0,73,30.07,10.0,North,10.4,16.1,N/A,,Scattered Clouds,360,2012-11-16 19:53:00
3:07 PM,68.0,59.0,73,30.08,10.0,NNE,10.4,-,N/A,,Mostly Cloudy,20,2012-11-16 20:07:00
3:16 PM,68.0,59.0,73,30.08,10.0,North,12.7,-,N/A,,Scattered Clouds,360,2012-11-16 20:16:00
3:26 PM,68.0,59.0,73,30.07,10.0,North,10.4,-,N/A,,Mostly Cloudy,360,2012-11-16 20:26:00
3:53 PM,68.0,59.0,73,30.07,10.0,North,8.1,-,N/A,,Scattered Clouds,360,2012-11-16 20:53:00
4:53 PM,66.0,59.0,78,30.06,10.0,NNE,8.1,-,N/A,,Clear,30,2012-11-16 21:53:00
5:53 PM,64.9,57.9,78,30.07,10.0,NNE,5.8,-,N/A,,Clear,20,2012-11-16 22:53:00
6:53 PM,64.0,57.9,80,30.09,10.0,North,3.5,-,N/A,,Clear,360,2012-11-16 23:53:00
7:17 PM,64.4,57.2,77,30.10,10.0,North,4.6,-,N/A,,Mostly Cloudy,350,2012-11-17 00:17:00
7:32 PM,64.4,57.2,77,30.10,9.0,North,4.6,-,N/A,,Scattered Clouds,10,2012-11-17 00:32:00
7:53 PM,64.0,57.9,80,30.10,9.0,North,5.8,-,N/A,,Clear,10,2012-11-17 00:53:00
8:53 PM,64.0,57.9,80,30.09,9.0,NE,6.9,-,N/A,,Clear,40,2012-11-17 01:53:00
9:53 PM,63.0,57.9,84,30.09,8.0,NNE,5.8,-,N/A,,Clear,30,2012-11-17 02:53:00
10:53 PM,63.0,57.9,84,30.10,9.0,NNE,6.9,-,N/A,,Clear,20,2012-11-17 03:53:00
11:53 PM,62.1,57.9,86,30.09,10.0,NNE,5.8,-,N/A,,Clear,30,2012-11-17 04:53:00